Regional Weather Roundup
Issued by NWS

Home | Current Version | Previous Version | Graphics & Text | Print | Product List | Glossary On
Versions: 1 2 3 4 5 6 7 8 9 10 11 12 13 14 15 16 17 18 19 20 21 22 23 24 25 26 27 28 29 30 31 32 33 34 35 36 37 38 39 40 41 42 43 44 45 46 47 48 49 50
000
ASUS43 KLSX 050507
RWRMO

WEATHER SUMMARY FOR MISSOURI
NATIONAL WEATHER SERVICE SPRINGFIELD MO
1200 AM CDT SAT SEP 05 2015

NOTE: "FAIR" INDICATES FEW OR NO CLOUDS BELOW 12,000 FEET WITH NO
       SIGNIFICANT WEATHER AND/OR OBSTRUCTIONS TO VISIBILITY.
       CURRENT SKY AND/OR WEATHER CONDITIONS ARE NOT AVAILABLE FOR
       CHILLICOTHE AND FARMINGTON.

MOZ001>031-035>038-043-044-053-054-050600-
...NORTHERN AND WESTERN MISSOURI...

CITY           SKY/WX    TMP DP  RH WIND       PRES   REMARKS
KANSAS CTY INT CLEAR     73  68  84 S8        29.98S
KANSAS C DTWN  CLEAR     80  69  69 S6        29.97S
LEE`S SUMMIT   CLEAR     79  68  69 S8        29.99F
ST JOSEPH      CLEAR     73  68  84 S3        29.97R
CHILLICOTHE      N/A     75  71  87 CALM      30.01R
KIRKSVILLE     CLEAR     73  67  81 S6        30.03R

$$
MOZ066>068-077>081-088>096-101>105-050600-
...SOUTHWEST MISSOURI...

CITY           SKY/WX    TMP DP  RH WIND       PRES   REMARKS
SPRINGFIELD    CLEAR     77  67  71 S9        30.03S
JOPLIN         CLEAR     79  69  71 SE7       30.00S

$$
MOZ032>034-039>042-045>050-055>058-069>072-050600-
...CENTRAL MISSOURI...

CITY           SKY/WX    TMP DP  RH WIND       PRES   REMARKS
COLUMBIA       CLEAR     76  70  82 SE6       30.03S
JEFFERSON CITY CLEAR     75  70  84 SE5       30.02R
ROLLA          CLEAR     75  68  78 SE9       30.05R
SEDALIA        CLEAR     74  69  85 S7        30.03R
WHITEMAN AFB   CLEAR     76  69  80 S6        29.99S
WARRENSBURG    CLEAR     73  68  83 SE5       30.00S
OSAGE BEACH    CLEAR     73  68  83 CALM      30.04R

$$
MOZ051-052-059>065-050600-
...EAST CENTRAL MISSOURI...

CITY           SKY/WX    TMP DP  RH WIND       PRES   REMARKS
ST LOUIS INTL  CLEAR     84  68  58 S6        30.05R
SPIRIT OF STL  CLEAR     72  71  97 CALM      30.03S
ST CHARLES     CLEAR     74  72  93 NE5       30.03R

$$
MOZ072>076-082>087-097>100-106>115-050600-
...SOUTH CENTRAL AND SOUTHEAST MISSOURI...

CITY           SKY/WX    TMP DP  RH WIND       PRES   REMARKS
CAPE GIRARDEAU CLEAR     72  71  97 CALM      30.04R
FARMINGTON     CLEAR     72  72 100 CALM      30.10R
POPLAR BLUFF   CLEAR     72  70  93 NW3       30.03R FOG
WEST PLAINS    CLEAR     70  67  90 CALM      30.09R

$$



USA.gov is the U.S. government's official web portal to all federal, state and local government web resources and services.